Location: Oberwangen
(47.4286°N, 8.9679°E)
Time: 04:42:31
(UTC+00:00)

Meteor 2-1 Rocket - Visible Passes

Search period start: 17 October 2021 00:00
Search period end: 27 October 2021 00:00
Orbit: 829 x 907 km, 81.3° (Epoch: 16 October)

Date Brightness Start Highest point End Pass type
(mag) Time Alt. Az. Time Alt. Az. Time Alt. Az.
19 Oct 6.8 05:13:56 10° NNE 05:17:45 19° ENE 05:21:32 10° ESE visible
20 Oct 6.8 05:07:09 10° NNE 05:11:01 19° ENE 05:14:52 10° ESE visible
21 Oct 6.8 05:00:23 10° NNE 05:04:17 19° ENE 05:08:12 10° ESE visible
22 Oct 6.8 04:53:36 10° NNE 04:57:34 20° ENE 05:01:31 10° ESE visible
23 Oct 6.8 04:46:50 10° NNE 04:50:50 20° ENE 04:54:50 10° ESE visible
24 Oct 6.8 04:40:03 10° NNE 04:44:06 20° ENE 04:48:10 10° ESE visible
24 Oct 6.7 19:48:54 10° N 19:48:54 10° N 19:48:56 10° N visible
25 Oct 6.7 04:33:17 10° NNE 04:37:23 21° ENE 04:41:29 10° ESE visible
25 Oct 6.6 19:41:49 12° N 19:41:49 12° N 19:42:11 10° N visible
26 Oct 6.7 04:26:31 10° NNE 04:30:40 21° ENE 04:34:49 10° ESE visible
26 Oct6.617:52:14NNE17:52:14NNE17:41:57SEvisible
26 Oct 6.4 19:24:24 10° SSW 19:34:33 15° N 19:35:26 10° N visible
